www.pogodaiklimat.ru

ПОГОДА в Шелби, NC

  • Прогноз погоды в Шелби
  • Монитор погоды в Шелби
  • Климат в Шелби

АРХИВ ПОГОДЫ в Шелби

Время (UTC), дата Ветер
(напр.,м/с)
 
Видим.   Явления Облачность Т
(С)
Тd
(С)
f
(%)
Тe
(С)
Тes
(С)
Комфортность

P
(гПа)

Po
(гПа)
Тmin
(С)
Tmax
(С)
R
(мм)
SD
(см)
01:20 16.06 Ю  16 км    ясно  +22.1  +15.7  67  +26  +26  душно    988.7         
01:40 16.06 Ю  16 км    ясно  +21.8  +15.5  67  +25  +25  комфорт    988.7         
02:00 16.06 Ю  16 км    ясно  +21.4  +15.7  70  +25  +25  комфорт    988.4         
02:20 16.06 Ю  16 км    ясно  +21.3  +15.5  70  +25  +25  комфорт    988.4         
02:40 16.06 Ю  16 км    ясно  +21.0  +15.5  71  +25  +25  комфорт    988.4         
03:00 16.06 Ю  16 км    ясно  +20.7  +15.5  72  +25  +25  комфорт    988.4         
03:20 16.06   16 км    ясно  +20.3  +15.5  74  +23  +23  комфорт    988.4         
03:40 16.06   16 км    ясно  +20.2  +15.5  74  +23  +23  комфорт    988.0         
04:00 16.06 Ю  16 км    5/5 1650 м  +20.0  +15.5  75  +23  +23  комфорт    988.0         
04:20 16.06   16 км    8/8 1650 м  +19.8  +15.5  76  +22  +22  комфорт    988.0         
04:40 16.06 Ю  16 км    8/8 1650 м  +19.8  +15.0  74  +23  +23  комфорт    988.0         
05:00 16.06 ЮЗ  16 км    5/5 1650 м  +19.6  +14.8  74  +22  +22  комфорт    988.0         
05:20 16.06 ЮЗ  16 км    8/8 1650 м  +19.5  +15.0  75  +22  +22  комфорт    988.0         
05:40 16.06   16 км    8/8 1650 м  +19.0  +15.3  79  +20  +20      987.7         
06:00 16.06   16 км    5/5 1650 м  +18.6  +15.1  80  +19  +19      987.7         
06:20 16.06   16 км    5/5 1650 м  +18.9  +15.0  78  +20  +20      987.7         
06:40 16.06   16 км    5/5 1650 м  +18.8  +15.0  79  +20  +20      987.7         
07:00 16.06 ЮЗ  16 км    8/8 1500 м  +18.6  +14.8  79  +20  +20      987.4         
07:20 16.06 ЮЗ  16 км    5/5 1500 м  +19.6  +14.1  71  +21  +21  комфорт    987.4         
07:40 16.06 ЮЗ  16 км    5/5 1500 м  +19.2  +14.4  74  +21  +21  комфорт    987.4         
08:00 16.06 ЮЗ  16 км    ясно  +19.5  +14.2  71  +22  +22  комфорт    987.4         
08:20 16.06 ЮЗ  16 км    ясно  +19.3  +14.5  74  +21  +21  комфорт    987.4         
08:40 16.06 ЮЗ  16 км    ясно  +19.6  +15.0  75  +21  +21  комфорт    987.4         
09:00 16.06 Ю  16 км    ясно  +19.1  +15.0  77  +21  +21  комфорт    987.4         
09:20 16.06 ЮЗ  16 км    ясно  +18.7  +15.1  80  +20  +20      987.4         
09:40 16.06 ЮЗ  16 км    ясно  +19.2  +15.5  79  +21  +21  комфорт    987.4         
10:00 16.06 ЮЗ  16 км    ясно  +19.6  +15.8  79  +22  +22  комфорт    987.4         
10:20 16.06 ЮЗ  16 км    ясно  +20.0  +16.1  78  +23  +23  комфорт    987.7         
10:40 16.06 ЮЗ  16 км    ясно  +20.1  +16.4  79  +24  +24  комфорт    987.7         
11:00 16.06 ЮЗ  16 км    ясно  +20.8  +16.8  78  +25  +27  комфорт    987.7         
11:20 16.06 ЮЗ  16 км    ясно  +21.4  +17.1  76  +25  +28  комфорт    988.0         
11:40 16.06 ЮЗ  16 км    ясно  +22.0  +17.5  76  +27  +28  душно    988.0         
12:00 16.06 ЮЗ  16 км    ясно  +22.5  +17.8  75  +28  +31  душно    988.0         
12:20 16.06 ЮЗ  16 км    ясно  +23.6  +18.4  73  +28  +32  душно    988.0         
12:40 16.06 ЮЗ  16 км    ясно  +23.8  +18.2  71  +28  +30  душно    988.0         
13:00 16.06 З  16 км    ясно  +24.5  +18.4  69  +29  +35  душно    988.0         
13:20 16.06 ЮЗ  4
{10} 
16 км    ясно  +25.1  +18.6  67  +30  +35  душно    988.0         
13:40 16.06 ЮЗ  16 км    ясно  +26.0  +18.3  63  +31  +34  очень
душно 
  988.0         
14:00 16.06 ЮЗ  6
{8} 
16 км    ясно  +26.5  +18.2  60  +31  +36  душно    987.7         
14:20 16.06 ЮЗ  16 км    ясно  +27.1  +18.2  58  +32  +41  очень
душно 
  987.4         
14:40 16.06 З  16 км    ясно  +27.6  +18.1  56  +32  +41  очень
душно 
  987.4         
15:00 16.06 ЮЗ  16 км    ясно  +28.0  +18.0  55  +33  +44  очень
душно 
  987.4         
15:20 16.06 Ю  16 км    ясно  +28.5  +18.2  54  +33  +47  очень
душно 
  987.1         
15:40 16.06 ЮЗ  16 км    5/5 1350 м  +28.3  +17.9  53  +33  +39  очень
душно 
  987.1         
16:00 16.06 ЮЗ  16 км    5/5 1410 м  +28.9  +18.6  54  +34  +38  очень
душно 
  987.1         
16:20 16.06   16 км    5/5 1470 м  +29.0  +18.2  52  +34  +48  очень
душно 
  986.7         
16:40 16.06 ЮЗ  16 км    ясно  +29.5  +18.4  51  +34  +50  очень
душно 
  986.7         
17:00 16.06 Ю  16 км    ясно  +29.6  +18.9  53  +35  +54  опасность
солнечного
удара 
  986.4         

 

Местоположение метеостанции Shelby Municipal Airport: широта 35.2500 долгота -81.6000 высота над уровнем моря 258 м.

В архиве по умолчанию представлена погода в Шелби за последние 1-2 суток. Обновление информации о фактической погоде в базе происходит ежечасно! Архивные данные за месяц целиком и за предыдущие месяцы Вы можете получить, выбрав интересующий диапазон дат из раскрывающегося списка и нажав кнопку "Ввод!".

Внимание! Архив погоды МЕТАР в базе сайта хранится не более 60 дней. Нет смысла пытаться выбрать более раннюю дату.

Внимание! Время в таблицах - всемирное. Для получения местного времени необходимо прибавить поправку, которая в Шелби равна -5 ч.

Ветер - указаны скорость ветра в м/с и направление, откуда дует ветер: С - северный, СВ - северо-восточный, В - восточный, ЮВ - юго-восточный, Ю - южный, ЮЗ - юго-западный, З - западный, СЗ - северо-западный.
Видимость - горизонтальная дальность видимости в метрах или километрах. При видимости от 1 до 10 км при отсутствии осадков обычно наблюдается дымка, при ухудшении видимости до 1 км и менее - туман. В сухую погоду видимость может ухудшаться дымом, пылью или мглою.
Атмосферные явления - указаны явления, наблюдавшиеся в указанный момент времени.
Облачность - указаны через наклонную черту верхняя и нижняя облачность в баллах и высота нижней границы облаков в метрах. Внимание: облачность, как и прочие метеорологические величины в США измеряются автоматическими метеостанциями. Указанные значения в баллах носят условный характер и показывают процент времени, в течение которого, в среднем, лазерный луч высотомера отражался от облаков обратно.
T - Температура воздуха - температура, измеренная на высоте 2 м над землей.
Td - Температура точки росы - температура, при понижении до которой содержащийся в воздухе водяной пар достигнет насыщения.
f - Относительная влажность воздуха - влажноcть воздуха, измеренная на высоте 2 м над землей.
Te - Эффективная температура - температура, которую ощущает одетый по сезону человек в тени. Характеристика душности погоды. При расчете учитывается влияние влажности воздуха и скорости ветра на теплоощущения человека.
Tes - Эффективная температура на солнце - температура, которую ощущает человек, с поправкой на солнечный нагрев. Характеристика знойности погоды. Зависит от высоты солнца над горизонтом, облачности и скорости ветра. Ночью, в пасмурную погоду, а также при ветре 12 м/с и более поправка равна нулю.
P - Атмосферное давление - приведенное к уровню моря атмосферное давление.
Po - Атмосферное давление - измеренное на уровне метеостанции атмосферное давление.
Tmin - Минимальная температура - минимум температуры воздуха на высоте 2 м над землей.
Tmax - Максимальная температура - максимум температуры воздуха на высоте 2 м над землей.
R - Количество осадков - Количество выпавших осадков за 3 или 6 часов, мм.
SD - Снежный покров - Высота снежного покрова, см.